N0JVW-13 Weather Reports


time (UTC)temp
F
wind
direction
speed
knots
gust
knots
rain 1hr
in
rain 24hr
in
rain mn
in
humidity
%
barometer
mb
20260510182018 64 360 0.0 4.3 0.00 0.00 0.00 35 1020.9
20260510181559 64 24 0.0 5.2 0.00 0.00 0.00 35 1021.0
20260510181034 64 31 2.6 7.0 0.00 0.00 0.00 33 1020.9
20260510180510 64 355 1.7 7.0 0.00 0.00 0.00 35 1020.8
20260510180104 65 13 2.6 6.1 0.00 0.00 0.00 33 1020.6
20260510175528 64 355 1.7 5.2 0.00 0.00 0.00 35 1020.7
20260510175004 64 26 1.7 6.1 0.00 0.00 0.00 35 1020.8
20260510174545 64 349 0.0 6.1 0.00 0.00 0.00 35 1020.6
20260510174022 64 16 0.0 5.2 0.00 0.00 0.00 36 1020.6
20260510173602 64 339 2.6 6.1 0.00 0.00 0.00 34 1020.8
20260510173045 64 81 0.9 6.1 0.00 0.00 0.00 39 1020.8
20260510172513 63 321 0.9 5.2 0.00 0.00 0.00 38 1020.6
20260510172053 63 359 1.7 5.2 0.00 0.00 0.00 35 1020.8
20260510171531 63 338 1.7 3.5 0.00 0.00 0.00 36 1020.8
20260510171007 63 340 0.9 5.2 0.00 0.00 0.00 36 1020.8
20260510170548 63 330 0.9 5.2 0.00 0.00 0.00 36 1020.7
20260510170025 63 347 0.9 5.2 0.00 0.00 0.00 35 1020.7
20260510165503 63 14 1.7 6.1 0.00 0.00 0.00 36 1020.7
20260510165040 63 354 2.6 6.1 0.00 0.00 0.00 35 1020.6
20260510164519 63 352 1.7 7.0 0.00 0.00 0.00 37 1020.6
20260510164059 63 325 2.6 7.0 0.00 0.00 0.00 37 1020.5
20260510163535 62 28 1.7 8.7 0.00 0.00 0.00 38 1020.4
20260510163010 62 12 3.5 8.7 0.00 0.00 0.00 36 1020.4
20260510162551 62 26 1.7 7.8 0.00 0.00 0.00 37 1020.3
20260510162031 62 21 4.3 7.8 0.00 0.00 0.00 37 1020.4
20260510161503 62 338 1.7 7.0 0.00 0.00 0.00 40 1020.5
20260510161044 62 335 1.7 7.0 0.00 0.00 0.00 38 1020.5
20260510160521 62 352 1.7 4.3 0.00 0.00 0.00 39 1020.6
20260510160105 62 160 0.9 4.3 0.00 0.00 0.00 43 1020.6
20260510155537 61 17 0.9 5.2 0.00 0.00 0.00 41 1020.5
20260510155013 61 335 0.9 7.8 0.00 0.00 0.00 42 1020.5
20260510154555 61 354 1.7 7.8 0.00 0.00 0.00 42 1020.5
20260510154030 61 339 0.9 6.1 0.00 0.00 0.00 42 1020.5
20260510153506 60 330 0.0 6.1 0.00 0.00 0.00 45 1020.4
20260510153059 60 353 3.5 7.8 0.00 0.00 0.00 42 1020.3
20260510152522 59 349 2.6 7.8 0.00 0.00 0.00 44 1020.2
20260510152102 59 332 2.6 5.2 0.00 0.00 0.00 45 1020.2
20260510151539 59 5 1.7 5.2 0.00 0.00 0.00 45 1020.2
20260510151014 58 23 1.7 5.2 0.00 0.00 0.00 45 1020.1
20260510150555 58 351 1.7 3.5 0.00 0.00 0.00 48 1020.1
20260510150038 58 354 0.0 5.2 0.00 0.00 0.00 48 1020.0
20260510145507 57 349 0.9 5.2 0.00 0.00 0.00 48 1020.1
20260510145047 57 340 1.7 5.2 0.00 0.00 0.00 47 1020.2
20260510144529 57 347 1.7 5.2 0.00 0.00 0.00 50 1020.3
20260510144104 57 24 0.9 3.5 0.00 0.00 0.00 50 1020.3
20260510143540 57 339 0.0 3.5 0.00 0.00 0.00 49 1020.2
20260510143029 57 12 0.9 2.6 0.00 0.00 0.00 50 1020.3
20260510142558 56 356 0.9 4.3 0.00 0.00 0.00 49 1020.2
20260510142035 56 13 0.9 4.3 0.00 0.00 0.00 49 1020.1
20260510141510 56 339 0.0 3.5 0.00 0.00 0.00 50 1020.1
20260510141050 56 13 0.9 5.2 0.00 0.00 0.00 48 1020.0
20260510140527 56 28 1.7 5.2 0.00 0.00 0.00 47 1020.0
20260510140006 56 335 0.9 5.2 0.00 0.00 0.00 48 1019.9
20260510135544 56 31 0.9 5.2 0.00 0.00 0.00 49 1020.0
20260510135020 56 341 1.7 5.2 0.00 0.00 0.00 48 1019.9
20260510134601 56 350 0.9 5.2 0.00 0.00 0.00 49 1019.8
20260510134036 56 354 0.9 5.2 0.00 0.00 0.00 49 1019.7
20260510133512 55 38 1.7 5.2 0.00 0.00 0.00 48 1019.8
20260510133054 55 32 0.9 5.2 0.00 0.00 0.00 50 1019.7
20260510132531 55 40 1.7 5.2 0.00 0.00 0.00 50 1019.7
20260510132003 55 17 0.9 5.2 0.00 0.00 0.00 49 1019.6
20260510131553 55 40 0.9 5.2 0.00 0.00 0.00 49 1019.5
20260510131020 55 11 2.6 5.2 0.00 0.00 0.00 49 1019.4
20260510130602 55 338 1.7 4.3 0.00 0.00 0.00 48 1019.5
20260510130038 55 343 1.7 4.3 0.00 0.00 0.00 49 1019.5
20260510125515 55 2 0.0 2.6 0.00 0.00 0.00 49 1019.3
20260510125101 55 353 0.0 4.3 0.00 0.00 0.00 48 1019.1
20260510124534 55 344 0.9 5.2 0.00 0.00 0.00 47 1019.0
20260510124007 55 345 1.7 5.2 0.00 0.00 0.00 46 1018.8
20260510123548 55 340 0.9 4.3 0.00 0.00 0.00 47 1018.8
20260510123024 55 355 1.7 4.3 0.00 0.00 0.00 47 1018.7
20260510122601 55 23 0.9 3.5 0.00 0.00 0.00 47 1018.6
20260510122037 55 355 0.0 3.5 0.00 0.00 0.00 46 1018.5
20260510121517 55 359 1.7 5.2 0.00 0.00 0.00 46 1018.2
20260510121055 55 353 1.7 5.2 0.00 0.00 0.00 46 1017.9
20260510120529 55 1 0.9 4.3 0.00 0.00 0.00 46 1017.9
20260510120008 55 18 0.9 6.1 0.00 0.00 0.00 46 1017.8
20260510115545 56 357 1.7 6.1 0.00 0.00 0.00 45 1017.7
20260510115022 56 342 1.7 5.2 0.00 0.00 0.00 45 1017.8
20260510114604 56 342 1.7 5.2 0.00 0.00 0.00 46 1017.8
20260510114039 56 343 1.7 4.3 0.00 0.00 0.00 46 1017.6
20260510113515 56 348 0.9 4.3 0.00 0.00 0.00 47 1017.5
20260510113056 56 343 0.9 5.2 0.00 0.00 0.00 47 1017.4
20260510112533 56 334 1.7 5.2 0.00 0.00 0.00 46 1017.4
20260510112010 56 343 1.7 6.1 0.00 0.00 0.00 46 1017.5
20260510111551 56 349 1.7 6.1 0.00 0.00 0.00 47 1017.3
20260510111026 56 350 0.9 4.3 0.00 0.00 0.00 48 1017.3
20260510110502 56 62 1.7 6.1 0.00 0.00 0.00 48 1017.2
20260510110043 57 2 2.6 6.1 0.00 0.00 0.00 48 1017.1
20260510105519 57 337 2.6 4.3 0.00 0.00 0.00 48 1017.1
20260510105103 57 345 1.7 4.3 0.00 0.00 0.00 48 1017.1
20260510104536 57 328 1.7 3.5 0.00 0.00 0.00 48 1017.0
20260510104013 57 352 1.7 3.5 0.00 0.00 0.00 48 1016.9
20260510103552 57 22 1.7 3.5 0.00 0.00 0.00 48 1016.8
20260510103029 57 11 0.9 3.5 0.00 0.00 0.00 48 1016.9
20260510102504 57 6 0.9 4.3 0.00 0.00 0.00 48 1016.6
20260510102044 57 23 0.9 4.3 0.00 0.00 0.00 48 1016.5
20260510101519 58 341 0.9 4.3 0.00 0.00 0.00 48 1016.4
20260510101103 58 342 0.9 5.2 0.00 0.00 0.00 47 1016.4
20260510100537 58 12 1.7 5.2 0.00 0.00 0.00 47 1016.2
20260510100027 58 359 1.7 4.3 0.00 0.00 0.00 47 1016.2
20260510095553 58 1 1.7 4.3 0.00 0.00 0.00 47 1016.0
20260510095032 59 350 0.9 5.2 0.00 0.00 0.00 47 1016.1
20260510094506 59 354 0.9 5.2 0.00 0.00 0.00 47 1016.1
20260510094047 59 331 0.9 4.3 0.00 0.00 0.00 48 1015.8
20260510093523 59 351 1.7 4.3 0.00 0.00 0.00 48 1015.9
20260510093104 59 347 1.7 7.0 0.00 0.00 0.00 49 1015.8
20260510092540 59 356 2.6 7.0 0.00 0.00 0.00 49 1015.7
20260510092025 59 351 3.5 6.1 0.00 0.00 0.00 50 1015.7
20260510091604 59 345 2.6 6.1 0.00 0.00 0.00 52 1015.7
20260510091037 59 337 2.6 5.2 0.00 0.00 0.00 53 1015.4
20260510090515 60 6 1.7 4.3 0.00 0.00 0.00 54 1015.5
20260510085530 60 19 2.6 6.1 0.00 0.00 0.00 53 1015.7
20260510085005 60 1 1.7 7.0 0.00 0.00 0.00 53 1015.5
20260510084607 60 44 3.5 7.0 0.00 0.00 0.00 54 1015.5
20260510084026 60 7 1.7 6.1 0.00 0.00 0.00 56 1015.4
20260510083602 60 20 1.7 9.6 0.00 0.00 0.00 57 1015.4
20260510083039 60 332 2.6 9.6 0.00 0.00 0.00 57 1015.2
20260510082514 60 24 2.6 5.2 0.00 0.00 0.00 61 1015.1
20260510082055 60 354 2.6 5.2 0.00 0.00 0.00 63 1015.0
20260510081544 60 9 1.7 5.2 0.00 0.00 0.00 65 1014.9
20260510081009 60 25 1.7 3.5 0.00 0.00 0.00 67 1014.9
20260510080548 61 18 0.9 3.5 0.00 0.00 0.00 69 1015.0
20260510080028 61 11 0.0 2.6 0.00 0.00 0.00 69 1014.9
20260510075605 61 5 0.0 2.6 0.00 0.00 0.00 68 1014.9
20260510075041 61 359 0.0 3.5 0.00 0.00 0.00 67 1014.5
20260510074515 61 29 0.9 3.5 0.00 0.00 0.00 66 1014.4
20260510074058 61 359 0.9 3.5 0.00 0.00 0.00 66 1014.3
20260510073533 61 23 0.0 2.6 0.00 0.00 0.00 67 1014.4
20260510073009 62 13 0.0 1.7 0.00 0.00 0.00 66 1014.4
20260510072549 62 30 0.0 0.9 0.00 0.00 0.00 66 1014.3
20260510072027 62 30 0.0 1.7 0.00 0.00 0.00 65 1014.1
20260510071501 62 1 0.0 1.7 0.00 0.00 0.00 65 1014.0
20260510071040 62 356 0.0 0.9 0.00 0.00 0.00 64 1013.9
20260510070516 62 356 0.0 0.9 0.00 0.00 0.00 64 1013.9
20260510070058 63 356 0.0 0.9 0.00 0.00 0.00 63 1013.9
20260510065534 63 356 0.0 0.9 0.00 0.00 0.00 62 1013.6
20260510065014 63 356 0.0 0.9 0.00 0.00 0.00 61 1013.7
20260510064553 63 356 0.0 0.9 0.00 0.00 0.00 61 1013.7
20260510064026 63 356 0.0 0.9 0.00 0.00 0.00 61 1013.5
20260510063503 63 356 0.0 0.0 0.00 0.00 0.00 61 1013.4
20260510063048 63 356 0.0 0.9 0.00 0.00 0.00 60 1013.5
20260510062519 63 356 0.0 0.9 0.00 0.00 0.00 60 1013.7
20260510062100 64 356 0.0 0.0 0.00 0.00 0.00 60 1013.8
20260510061536 64 356 0.0 0.0 0.00 0.00 0.00 59 1013.9
20260510061012 64 356 0.0 0.9 0.00 0.00 0.00 59 1013.9
20260510060554 64 356 0.0 1.7 0.00 0.00 0.00 58 1013.8
20260510060030 64 356 0.0 1.7 0.00 0.00 0.00 57 1013.6
20260510055506 64 352 0.0 1.7 0.00 0.00 0.00 57 1013.5
20260510055050 64 352 0.0 1.7 0.00 0.00 0.00 57 1013.4
20260510054523 65 352 0.0 1.7 0.00 0.00 0.00 57 1013.2
20260510054102 65 352 0.0 1.7 0.00 0.00 0.00 57 1013.2
20260510053540 65 342 0.0 0.9 0.00 0.00 0.00 57 1013.4
20260510053014 65 342 0.0 0.9 0.00 0.00 0.00 56 1013.5
20260510052555 66 341 0.0 2.6 0.00 0.00 0.00 56 1013.5
20260510052031 66 325 0.0 2.6 0.00 0.00 0.00 53 1013.1
20260510051507 66 343 0.9 3.5 0.00 0.00 0.00 51 1013.0
20260510051151 66 328 0.0 4.3 0.00 0.00 0.00 51 1012.8
20260510050529 66 357 0.9 5.2 0.00 0.00 0.00 50 1012.5
20260510050111 67 340 0.9 5.2 0.00 0.00 0.00 51 1012.5
20260510045541 67 337 0.9 5.2 0.00 0.00 0.00 50 1012.1
20260510045018 67 319 0.9 5.2 0.00 0.00 0.00 50 1012.0
20260510044600 67 347 1.7 5.2 0.00 0.00 0.00 50 1011.9
20260510044031 67 357 0.0 4.3 0.00 0.00 0.00 50 1011.6
20260510043509 67 340 0.9 6.1 0.00 0.00 0.00 49 1011.5
20260510043103 67 10 0.9 6.1 0.00 0.00 0.00 49 1011.5
20260510042528 67 14 3.5 6.1 0.00 0.00 0.00 49 1011.6
20260510042002 67 340 2.6 5.2 0.00 0.00 0.00 50 1011.7
20260510041544 67 328 1.7 5.2 0.00 0.00 0.00 52 1011.7
20260510041021 67 333 0.9 3.5 0.00 0.00 0.00 56 1011.5
20260510040603 67 4 0.9 5.2 0.00 0.00 0.00 57 1011.6
20260510040036 67 334 1.7 6.1 0.00 0.00 0.00 59 1011.6
20260510035513 67 30 3.5 6.1 0.00 0.00 0.00 59 1011.5
20260510035055 67 8 1.7 4.3 0.00 0.00 0.00 62 1011.5
20260510034538 67 335 0.0 0.9 0.00 0.00 0.00 63 1011.5
20260510034007 68 25 0.0 0.0 0.00 0.00 0.00 59 1011.8
20260510033550 68 25 0.0 0.0 0.00 0.00 0.00 58 1012.0
20260510033022 68 25 0.0 0.0 0.00 0.00 0.00 56 1011.8
20260510032604 68 25 0.0 0.0 0.00 0.00 0.00 56 1011.6
20260510032040 67 25 0.0 0.0 0.00 0.00 0.00 56 1011.2
20260510031516 67 25 0.0 0.0 0.00 0.00 0.00 56 1011.1
20260510031058 67 25 0.0 0.0 0.00 0.00 0.00 55 1010.8
20260510030534 68 25 0.0 0.0 0.00 0.00 0.00 54 1010.8
20260510030008 68 25 0.0 0.0 0.00 0.00 0.00 54 1010.8
20260510025549 68 25 0.0 0.0 0.00 0.00 0.00 54 1010.6
20260510025025 68 25 0.0 0.0 0.00 0.00 0.00 53 1010.4
20260510024502 69 25 0.0 0.0 0.00 0.00 0.00 53 1010.4
20260510024042 69 25 0.0 0.0 0.00 0.00 0.00 53 1010.3
20260510023517 69 25 0.0 0.0 0.00 0.00 0.00 52 1010.1
20260510023058 69 25 0.0 0.0 0.00 0.00 0.00 51 1009.9
20260510022535 70 25 0.0 0.0 0.00 0.00 0.00 51 1009.8
20260510022011 70 25 0.0 0.0 0.00 0.00 0.00 51 1009.8
20260510021551 70 25 0.0 1.7 0.00 0.00 0.00 50 1009.7
20260510021027 71 25 0.0 1.7 0.00 0.00 0.00 49 1009.6
20260510020506 71 5 0.0 1.7 0.00 0.00 0.00 49 1009.6
20260510020048 71 352 0.9 2.6 0.00 0.00 0.00 49 1009.4
20260510015520 71 32 0.0 2.6 0.00 0.00 0.00 48 1009.5
20260510015101 71 6 0.0 2.6 0.00 0.00 0.00 49 1009.4
20260510014542 71 16 0.0 2.6 0.00 0.00 0.00 48 1009.3
20260510014015 72 358 0.0 3.5 0.00 0.00 0.00 48 1009.2
20260510013556 72 26 0.9 3.5 0.00 0.00 0.00 47 1009.1
20260510013031 72 44 0.9 3.5 0.00 0.00 0.00 47 1009.0
20260510012507 72 342 0.9 3.5 0.00 0.00 0.00 48 1009.0
20260510012050 72 15 0.0 1.7 0.00 0.00 0.00 48 1008.9
20260510011536 72 349 0.0 2.6 0.00 0.00 0.00 47 1008.9
20260510011105 73 20 0.0 2.6 0.00 0.00 0.00 47 1008.8
20260510010540 73 10 0.0 1.7 0.00 0.00 0.00 46 1008.8
20260510010018 73 10 0.0 1.7 0.00 0.00 0.00 46 1008.7
20260510005559 73 9 0.0 5.2 0.00 0.00 0.00 45 1008.6
20260510005036 74 9 1.7 5.2 0.00 0.00 0.00 44 1008.4
20260510004513 74 20 0.0 5.2 0.00 0.00 0.00 45 1008.4
20260510004053 74 41 0.0 5.2 0.00 0.00 0.00 44 1008.3
20260510003531 74 298 0.9 5.2 0.00 0.00 0.00 43 1008.3
20260510003008 75 343 0.0 3.5 0.00 0.00 0.00 43 1008.1
20260510002548 75 37 0.0 3.5 0.00 0.00 0.00 43 1007.9
20260510002024 75 15 0.9 3.5 0.00 0.00 0.00 43 1007.9
20260510001501 75 352 0.0 6.1 0.00 0.00 0.00 42 1007.8
20260510001042 76 9 2.6 6.1 0.00 0.00 0.00 41 1007.6
20260510000519 76 18 0.9 6.1 0.00 0.00 0.00 40 1007.6
20260510000107 76 7 0.9 6.1 0.00 0.00 0.00 40 1007.6
20260509235538 76 27 0.9 3.5 0.00 0.00 0.00 40 1007.6
20260509235015 76 330 0.0 5.2 0.00 0.00 0.00 40 1007.5
20260509234559 77 19 0.0 5.2 0.00 0.00 0.00 40 1007.6
20260509234027 77 320 0.0 9.6 0.00 0.00 0.00 39 1007.5
20260509233505 78 283 0.0 9.6 0.00 0.00 0.00 38 1007.5
20260509233047 78 62 0.9 6.1 0.00 0.00 0.00 36 1007.4
20260509232521 79 340 0.0 1.7 0.00 0.00 0.00 35 1007.2
20260509232101 79 285 0.0 0.9 0.00 0.00 0.00 33 1007.0
20260509231548 80 285 0.0 0.9 0.00 0.00 0.00 34 1006.9
20260509231022 80 285 0.0 0.9 0.00 0.00 0.00 33 1006.9
20260509230606 80 285 0.0 0.9 0.00 0.00 0.00 33 1006.8
20260509230039 80 285 0.0 1.7 0.00 0.00 0.00 35 1006.8
20260509225516 81 285 0.0 1.7 0.00 0.00 0.00 34 1006.8
20260509225056 81 268 0.0 0.9 0.00 0.00 0.00 34 1006.7
20260509224532 81 267 0.0 0.9 0.00 0.00 0.00 34 1006.7
20260509224008 81 268 0.0 1.7 0.00 0.00 0.00 34 1006.6
20260509223549 81 267 0.0 1.7 0.00 0.00 0.00 33 1006.6
20260509223026 81 281 0.9 1.7 0.00 0.00 0.00 33 1006.6
20260509222501 81 276 0.0 1.7 0.00 0.00 0.00 34 1006.6
20260509222045 82 276 0.0 1.7 0.00 0.00 0.00 33 1006.6
20260509221520 82 311 0.0 1.7 0.00 0.00 0.00 32 1006.6
20260509221100 82 285 0.0 2.6 0.00 0.00 0.00 32 1006.5
20260509220535 82 291 0.0 2.6 0.00 0.00 0.00 31 1006.5
20260509220011 83 279 0.9 1.7 0.00 0.00 0.00 31 1006.5
20260509215553 83 265 0.0 2.6 0.00 0.00 0.00 33 1006.5
20260509215032 83 264 0.0 2.6 0.00 0.00 0.00 32 1006.5
20260509214506 82 275 0.0 2.6 0.00 0.00 0.00 33 1006.5
20260509214046 82 300 0.0 0.9 0.00 0.00 0.00 35 1006.5
20260509213523 82 281 0.0 1.7 0.00 0.00 0.00 36 1006.6
20260509213103 82 285 0.0 3.5 0.00 0.00 0.00 35 1006.5
20260509212539 82 264 0.0 3.5 0.00 0.00 0.00 35 1006.6
20260509212017 82 200 0.0 0.9 0.00 0.00 0.00 38 1006.5
20260509211556 82 291 0.0 2.6 0.00 0.00 0.00 33 1006.5
20260509211033 83 313 0.0 2.6 0.00 0.00 0.00 33 1006.5
20260509210510 82 277 0.0 2.6 0.00 0.00 0.00 35 1006.6
20260509210057 82 277 0.0 2.6 0.00 0.00 0.00 34 1006.6
20260509205523 82 273 0.0 2.6 0.00 0.00 0.00 35 1006.7
20260509205104 82 273 0.0 2.6 0.00 0.00 0.00 36 1006.7
20260509204549 82 278 0.0 1.7 0.00 0.00 0.00 35 1006.8
20260509204023 81 280 0.0 2.6 0.00 0.00 0.00 37 1006.9
20260509203558 81 280 0.0 2.6 0.00 0.00 0.00 35 1007.0
20260509203033 81 275 0.0 2.6 0.00 0.00 0.00 38 1007.0
20260509202510 81 316 0.9 2.6 0.00 0.00 0.00 39 1007.1
20260509202051 81 311 0.0 1.7 0.00 0.00 0.00 39 1007.1
20260509201530 81 298 0.0 1.7 0.00 0.00 0.00 38 1007.2
20260509201004 81 311 0.0 2.6 0.00 0.00 0.00 38 1007.2
20260509200545 81 285 0.0 2.6 0.00 0.00 0.00 39 1007.2
20260509200022 81 282 0.0 3.5 0.00 0.00 0.00 38 1007.3
20260509195604 81 267 0.9 3.5 0.00 0.00 0.00 36 1007.3
20260509195039 81 317 0.0 2.6 0.00 0.00 0.00 37 1007.4
20260509194518 81 298 0.0 2.6 0.00 0.00 0.00 38 1007.5
20260509194056 81 327 0.9 2.6 0.00 0.00 0.00 37 1007.6
20260509193533 81 277 0.0 1.7 0.00 0.00 0.00 38 1007.5
20260509193008 81 316 0.0 1.7 0.00 0.00 0.00 40 1007.6
20260509192551 81 316 0.0 2.6 0.00 0.00 0.00 41 1007.6
20260509192026 81 316 0.9 2.6 0.00 0.00 0.00 39 1007.6
20260509191605 81 203 0.0 1.7 0.00 0.00 0.00 40 1007.6
20260509191039 80 203 0.0 1.7 0.00 0.00 0.00 40 1007.7
20260509190516 80 289 0.0 3.5 0.00 0.00 0.00 41 1007.7
20260509190056 80 257 0.0 3.5 0.00 0.00 0.00 40 1007.8
20260509185531 80 105 0.0 3.5 0.00 0.00 0.00 41 1007.9
20260509185011 80 79 0.9 2.6 0.00 0.00 0.00 42 1007.9
20260509184558 80 294 0.0 2.6 0.00 0.00 0.00 41 1007.9
20260509184023 80 329 0.0 1.7 0.00 0.00 0.00 40 1008.0
20260509183604 80 274 0.0 1.7 0.00 0.00 0.00 38 1008.0
20260509183039 80 274 0.0 1.7 0.00 0.00 0.00 40 1008.0
20260509182515 79 279 0.0 1.7 0.00 0.00 0.00 40 1008.1
20260509182056 79 280 0.0 2.6 0.00 0.00 0.00 41 1008.1